TimeMST,TemperatureF,Dew PointF,Humidity,Sea Level PressureIn,VisibilityMPH,Wind Direction,Wind SpeedMPH,Gust SpeedMPH,PrecipitationIn,Events,Conditions,WindDirDegrees,DateUTC
12:53 AM,37.9,19.0,47,29.99,10.0,ENE,3.5,-,N/A,,Clear,60,2012-12-03 07:53:00
1:53 AM,36.0,19.0,50,29.99,10.0,NE,3.5,-,N/A,,Clear,40,2012-12-03 08:53:00
2:53 AM,35.1,19.9,54,30.01,10.0,East,3.5,-,N/A,,Clear,80,2012-12-03 09:53:00
3:53 AM,32.0,19.0,59,30.03,10.0,NNE,3.5,-,N/A,,Clear,30,2012-12-03 10:53:00
5:53 AM,33.1,19.9,59,30.11,10.0,ENE,4.6,-,N/A,,Scattered Clouds,60,2012-12-03 12:53:00
6:53 AM,32.0,19.9,61,30.14,10.0,ENE,9.2,-,N/A,,Partly Cloudy,70,2012-12-03 13:53:00
7:53 AM,35.1,21.0,57,30.11,10.0,Calm,Calm,-,N/A,,Clear,0,2012-12-03 14:53:00
8:53 AM,41.0,21.9,47,30.12,10.0,East,3.5,-,N/A,,Clear,80,2012-12-03 15:53:00
9:53 AM,46.9,27.0,46,30.11,10.0,West,4.6,-,N/A,,Clear,260,2012-12-03 16:53:00
10:53 AM,54.0,32.0,43,30.08,10.0,West,13.8,-,N/A,,Clear,260,2012-12-03 17:53:00
11:53 AM,55.9,34.0,44,30.07,10.0,WNW,19.6,31.1,N/A,,Clear,290,2012-12-03 18:53:00
12:53 PM,55.9,34.0,44,30.06,10.0,NW,23.0,29.9,N/A,,Clear,320,2012-12-03 19:53:00
1:53 PM,55.9,33.1,42,30.08,10.0,NNW,13.8,23.0,N/A,,Mostly Cloudy,330,2012-12-03 20:53:00
2:53 PM,55.9,32.0,40,30.08,10.0,NW,19.6,26.5,N/A,,Partly Cloudy,320,2012-12-03 21:53:00
3:53 PM,54.0,30.9,41,30.12,10.0,NW,10.4,21.9,N/A,,Clear,320,2012-12-03 22:53:00
4:53 PM,52.0,30.0,43,30.14,10.0,NW,8.1,-,N/A,,Clear,310,2012-12-03 23:53:00
5:53 PM,46.9,30.0,52,30.17,10.0,NNW,5.8,-,N/A,,Clear,330,2012-12-04 00:53:00
6:53 PM,45.0,30.0,56,30.20,10.0,West,3.5,-,N/A,,Clear,260,2012-12-04 01:53:00
7:53 PM,46.9,30.9,54,30.20,10.0,WNW,6.9,-,N/A,,Clear,290,2012-12-04 02:53:00
8:53 PM,41.0,30.0,65,30.22,10.0,WSW,3.5,-,N/A,,Clear,250,2012-12-04 03:53:00
9:53 PM,42.1,30.0,62,30.22,10.0,West,3.5,-,N/A,,Clear,270,2012-12-04 04:53:00
11:53 PM,36.0,28.0,73,30.25,10.0,West,5.8,-,N/A,,Clear,260,2012-12-04 06:53:00